Girona Airport

Jump to: basic info | weather | frequencies | runways | comments

Related pages: nearby airports | nearby navaids | notams | map

Basic information (top)

Codes: GRO LEGE
Location: lon 41.901001, lat 2.760550, elev 468 ft / 143 m msl
Status: medium_airport
Scheduled airline service: yes
Links: Wikipedia Mobile

Weather (top)

Current conditions (rec'd 2014/09/02 18:30Z):

LEGE 021830Z 19002KT 9999 FEW030 23/23 Q1012

Airport forecast (rec'd 2014/09/02 18:27Z):

TAF LEGE 021700Z 0218/0318 19008KT 9999 FEW020 TX30/0314Z TN16/0306Z 
      BECMG 0218/0221 VRB03KT PROB30 
      TEMPO 0303/0307 4000 BR BKN012 
      BECMG 0312/0314 18010KT

Frequencies (top)

Verify before use: may be inaccurate or out of date.

APP: 120.9 MHz (APP)
GND: 121.7 MHz (GND)
TWR: 118.5 MHz (TWR)

Runways (top)

02/20: 7,874 x 148 ft (2,400 x 45 m) — paved — lighted

Latest comments (top)

No comments yet for Girona Airport

More... (top)

See also NOTAMs and nearby airports and navaids, or visit the Girona Airport page at the main OurAirports website..